Asheville, NC

7:03 PM EST on December 14, 2019 (GMT -0500)
Asheville Regional

Weather History for KAVL - September, 2019

Change the Weather History Date:

Thursday, September 5, 2019

  Actual Average Record
Temperature  
Mean Temperature 79 °F 70 °F  
Max Temperature 89 °F 80 °F 95 °F (1954)
Min Temperature 68 °F 60 °F 41 °F (1997)
Degree Days  
Heating Degree Days 0 0  
Month to date heating degree days 0 0  
Since 1 July heating degree days 0 2  
Cooling Degree Days 14 5  
Month to date cooling degree days 50 28  
Year to date cooling degree days 1056 785  
Growing Degree Days 28 (Base 50)    
Moisture  
Dew Point 63 °F    
Average Humidity 64    
Maximum Humidity 84    
Minimum Humidity 43    
Precipitation  
Precipitation 0.00 in 0.13 in 3.14 in (1935)
Month to date precipitation 0.00 0.67  
Year to date precipitation 41.71 32.28  
Snow  
Snow 0.00 in 0.00 in 0.00 in ()
Month to date snowfall 0.0 0.0  
Since 1 July snowfall 0.0 0.0  
Since 1 September snowfall 0.0 0.0  
Snow Depth 0.00 in    
Sea Level Pressure  
Sea Level Pressure 29.90 in    
Wind  
Wind Speed 11 mph (North)    
Max Wind Speed 21 mph    
Max Gust Speed 28 mph    
Visibility 10 miles    
Events      
T = Trace of Precipitation, MM = Missing Value Source: NWS Daily Summary

Daily Weather History Graph

Daily Weather History Graph

Search for Another Location

Airport or City:

Astronomy

Sep. 05, 2019 Rise Set
Actual Time 7:05 AM EDT 7:51 PM EDT
Civil Twilight 6:39 AM EDT 8:17 PM EDT
Nautical Twilight 6:08 AM EDT 8:48 PM EDT
Astronomical Twilight 5:37 AM EDT 9:19 PM EDT
Moon 1:56 PM EDT (9/5) No Moon Set
Length of Visible Light 13h 38m
Length of Day
12h 46m
Waxing Crescent, 45% of the Moon is Illuminated
Sep 5
Waxing Crescent
Sep 5
First Quarter
Sep 14
Full
Sep 21
Last Quarter
Sep 28
New

Hourly Weather History & Observations

Time (EDT) Temp. Heat Index Dew Point Humidity Pressure Visibility Wind Dir Wind Speed Gust Speed Precip Events Conditions
12:54 AM 73.0 °F - 61.0 °F 66% 29.95 in 10.0 mi NE 4.6 mph - N/A   Clear
1:54 AM 72.0 °F - 62.1 °F 71% 29.95 in 10.0 mi East 3.5 mph - N/A   Clear
2:54 AM 72.0 °F - 62.1 °F 71% 29.92 in 10.0 mi NNE 5.8 mph - N/A   Clear
3:54 AM 71.1 °F - 62.1 °F 73% 29.91 in 10.0 mi North 8.1 mph - N/A   Clear
4:54 AM 70.0 °F - 62.1 °F 76% 29.92 in 10.0 mi NNE 5.8 mph - N/A   Clear
5:54 AM 71.1 °F - 63.0 °F 75% 29.91 in 10.0 mi North 10.4 mph - N/A   Clear
6:54 AM 70.0 °F - 64.0 °F 81% 29.92 in 10.0 mi North 10.4 mph - N/A   Clear
7:54 AM 71.1 °F - 64.0 °F 78% 29.94 in 10.0 mi North 5.8 mph - N/A   Clear
8:54 AM 72.0 °F - 64.9 °F 78% 29.93 in 10.0 mi North 10.4 mph - N/A   Clear
9:54 AM 75.0 °F - 64.9 °F 71% 29.93 in 10.0 mi North 9.2 mph - N/A   Clear
10:54 AM 78.1 °F - 64.9 °F 64% 29.92 in 10.0 mi North 9.2 mph - N/A   Partly Cloudy
11:54 AM 82.0 °F 83.8 °F 64.9 °F 56% 29.91 in 10.0 mi NNW 11.5 mph - N/A   Scattered Clouds
12:54 PM 82.9 °F 84.4 °F 64.0 °F 53% 29.89 in 10.0 mi North 11.5 mph - N/A   Partly Cloudy
1:54 PM 84.9 °F 85.9 °F 63.0 °F 48% 29.88 in 10.0 mi North 11.5 mph - N/A   Scattered Clouds
2:54 PM 88.0 °F 88.7 °F 63.0 °F 43% 29.85 in 10.0 mi North 12.7 mph - N/A   Scattered Clouds
3:54 PM 87.1 °F 87.5 °F 62.1 °F 43% 29.84 in 10.0 mi NNW 15.0 mph 19.6 mph N/A   Partly Cloudy
4:54 PM 86.0 °F 86.3 °F 62.1 °F 44% 29.84 in 10.0 mi NNW 13.8 mph 20.7 mph N/A   Mostly Cloudy
5:54 PM 82.9 °F 83.7 °F 62.1 °F 49% 29.84 in 10.0 mi NNW 16.1 mph 23.0 mph N/A   Scattered Clouds
6:54 PM 84.0 °F 84.4 °F 61.0 °F 46% 29.84 in 10.0 mi NNW 15.0 mph 23.0 mph N/A   Partly Cloudy
7:54 PM 80.1 °F 81.7 °F 64.0 °F 58% 29.86 in 10.0 mi North 13.8 mph 23.0 mph N/A   Mostly Cloudy
8:54 PM 77.0 °F - 64.0 °F 64% 29.88 in 10.0 mi NNW 15.0 mph - N/A   Clear
9:54 PM 75.0 °F - 62.1 °F 64% 29.89 in 10.0 mi NNW 15.0 mph - N/A   Clear
10:54 PM 73.9 °F - 61.0 °F 64% 29.89 in 10.0 mi NNW 12.7 mph 18.4 mph N/A   Clear
11:54 PM 73.0 °F - 61.0 °F 66% 29.89 in 10.0 mi NNW 9.2 mph - N/A   Clear